Погода в Сунже

Россия / Республика Ингушетия     43°19′13″N   45°02′51″E
темп.,
°C
ветер,
м/с
пор.,
м/с
влажн.,
%
обл.,
%
осадки,
мм/ч
давл.,
гПа
погр.,
м
21 июня, пн
пн2100:00+19зюз33810 0.0 101138
03:00+18юз22711 0.0 101225
06:00+20юз22690 0.0 101158
09:00+26всв33530 0.0 1011536
12:00+30всв45470 0.0 10101027
15:00+31ссв23410 0.0 1008999
18:00+28с24540 0.0 1008127
21:00+22з1257100 0.0 101018
22 июня, вт
вт2200:00+20зюз3469100 0.0 101053
03:00+19зюз32704 0.0 101036
06:00+20ююз11640 0.0 101143
09:00+25в23490 0.0 1011475
12:00+29св33413 0.0 1010960
15:00+30с22395 0.0 1009871
18:00+28з345834 0.0 100889
21:00+22з346838 0.0 100948
23 июня, ср
ср2300:00+20юз4970100 0.0 1011145
03:00+20юз49680 0.0 1011200
06:00+21юз24660 0.0 101295
09:00+27в23430 0.0 1012545
12:00+30св33380 0.0 10121198
15:00+31с43380 0.0 10101514
18:00+28сз35570 0.0 1011190
21:00+22зюз22710 0.0 101316
24 июня, чт
чт2400:00+20юз33780 0.0 101237
03:00+19юз22670 0.0 101221
06:00+20юз22640 0.0 101370
09:00+27ссз11520 0.0 1012680
12:00+30ссв43460 0.0 10121474
15:00+30ссз33460 0.0 10121375
18:00+28зсз34610 0.0 1012435
21:00+22зюз22770 0.0 101323
25 июня, пт
пт2500:00+21юз33820 0.0 101337
03:00+19юз33750 0.0 101237
06:00+21юз126649 0.0 101259
09:00+27ссв11570 0.0 1011771
12:00+30с22471 0.0 10111654
15:00+32ссз334513 0.0 10101867
18:00+28сз45620 0.0 1010532
21:00+22зюз33811 0.0 101245